This is the latest recevied weather packets stored in our database for station/object KJ4EWA. If no packets are shown the sender has not sent any weather packets the latest 10 day(s).
| Time | Temp. | Humidity | Pressure | Rain* | Wind** | Luminosity | Snow |
|---|---|---|---|---|---|---|---|
| 1778156647 | 25.56° C | 99% | 1016 hPa | 0 mm | - | 48 W/m² | - |
| 1778156344 | 25° C | 99% | 1015.9 hPa | 0 mm | - | 70 W/m² | - |
| 1778156039 | 25° C | 99% | 1015.8 hPa | 0 mm | - | 23 W/m² | - |
| 1778155736 | 25° C | 99% | 1015.6 hPa | 0 mm | - | 20 W/m² | - |
| 1778155433 | 25° C | 99% | 1015.7 hPa | 0 mm | - | 40 W/m² | - |
| 1778155129 | 25° C | 99% | 1015.5 hPa | 0 mm | - | 17 W/m² | - |
| 1778154825 | 25° C | 99% | 1015.6 hPa | 0 mm | - | 7 W/m² | - |
| 1778154521 | 25° C | 99% | 1015.5 hPa | 0 mm | - | 5 W/m² | - |
| 1778154218 | 25° C | 99% | 1015.4 hPa | 0 mm | - | 5 W/m² | - |
| 1778153915 | 25° C | 99% | 1015.4 hPa | 0 mm | - | 4 W/m² | - |
| 1778153612 | 25° C | 99% | 1015.3 hPa | 0 mm | - | 2 W/m² | - |
| 1778153310 | 25° C | 99% | 1015.2 hPa | 0 mm | - | 2 W/m² | - |
| 1778153007 | 25° C | 99% | 1015.2 hPa | 0 mm | - | 2 W/m² | - |
| 1778152705 | 25° C | 99% | 1015.2 hPa | 0 mm | - | 2 W/m² | - |
| 1778152401 | 25° C | 99% | 1014.9 hPa | 0 mm | - | 1 W/m² | - |
| 1778152097 | 25° C | 99% | 1015.2 hPa | 0 mm | - | 0 W/m² | - |
| 1778151793 | 25° C | 99% | 1015.4 hPa | 0 mm | - | 0 W/m² | - |
| 1778151490 | 25° C | 99% | 1015.3 hPa | 0 mm | - | 0 W/m² | - |
| 1778151187 | 25° C | 99% | 1015.2 hPa | 0 mm | - | 0 W/m² | - |
| 1778150884 | 25° C | 99% | 1014.7 hPa | 0 mm | - | 0 W/m² | - |
| 1778150580 | 25° C | 99% | 1014.6 hPa | 0 mm | - | 0 W/m² | - |
| 1778150276 | 25° C | 99% | 1014.7 hPa | 0 mm | - | 0 W/m² | - |
| 1778149973 | 25° C | 99% | 1014.8 hPa | 0 mm | - | 0 W/m² | - |
| 1778149669 | 25° C | 99% | 1014.9 hPa | 0 mm | - | 0 W/m² | - |
| 1778149366 | 24.44° C | 99% | 1014.6 hPa | 0 mm | - | 0 W/m² | - |
* Rain latest hour (hover to see other rain measurements)
** Current wind speed in m/s (hover to see current wind gust speed)